Latest Coastal Weather Observations for Gabo Island

IDV60701

Issued at 11:41 pm EST Saturday 4 July 2015 (issued every 10 minutes, with the page automatically refreshed every 10 minutes)

About coastal observations | Map of coastal stations | Coastal observations for VIC | Marine services | Other Formats
Station Details ID: 084016 Name: GABO ISLAND LIGHTHOUSE Lat: -37.57 Lon: 149.92 Height: 15.2 m
Data from the previous 72 hours. | See also: Recent months at Gabo Island
Date/Time
EST
Temp

°C
Wind Pressure Rain
since 9am
mm
Weather Cloud Vis
km
Sea
Height
m
Swell
Dir
 
Speed
knots
Gust
knots
hPa Trend Height
m
Period
s
Dir
04/11:30pm 11.8 W 11 14 1019.5 - 0.0 - - - - - - -
04/11:00pm 11.6 W 9 12 1019.6 - 0.0 - - - - - - -
04/10:30pm 11.8 WNW 8 11 1019.6 - 0.0 - - - - - - -
04/10:00pm 11.7 WNW 7 9 1019.5 - 0.0 - - - - - - -
04/09:30pm 11.5 WNW 8 10 1019.7 - 0.0 - - - - - - -
04/09:00pm 11.8 W 7 11 1019.7 - 0.0 Fine Mostly clear 40 1 2.5 8 S
04/08:30pm 11.8 WNW 7 12 1019.6 - 0.0 - - - - - - -
04/08:00pm 11.7 W 7 10 1019.6 - 0.0 - - - - - - -
04/07:30pm 12.3 W 9 11 1019.6 - 0.0 - - - - - - -
04/07:00pm 12.7 W 11 15 1019.6 - 0.0 - - - - - - -
04/06:30pm 12.9 W 11 14 1019.5 - 0.0 - - - - - - -
04/06:00pm 13.0 WSW 13 15 1019.3 - 0.0 - - - - - - -
04/05:30pm 13.1 WSW 14 18 1019.2 - 0.0 - - - - - - -
04/05:00pm 13.0 WSW 15 19 1018.9 - 0.0 - - - - - - -
04/04:30pm 13.3 WSW 17 21 1018.8 - 0.0 - - - - - - -
04/04:00pm 13.7 WSW 17 22 1018.7 - 0.0 - - - - - - -
04/03:30pm 13.8 WSW 15 19 1018.6 - 0.0 - - - - - - -
04/03:00pm 14.1 W 13 17 1018.6 - 0.0 Fine Mostly cloudy 40 <0.5 2.5 8 S
04/02:30pm 14.1 W 11 17 1018.5 - 0.0 - - - - - - -
04/02:00pm 14.1 W 9 13 1018.6 - 0.0 - - - - - - -
04/01:30pm 13.7 W 7 10 1018.5 - 0.0 - - - - - - -
04/01:00pm 14.1 WNW 9 11 1018.9 - 0.0 - - - - - - -
04/12:30pm 13.6 WNW 9 11 1019.3 - 0.0 - - - - - - -
04/12:00pm 12.9 WNW 11 14 1019.8 - 0.0 - - - - - - -
04/11:30am 12.7 WNW 10 14 1020.2 - 0.0 - - - - - - -
04/11:00am 11.6 WNW 9 12 1020.7 - 0.0 - - - - - - -
04/10:30am 10.8 WNW 10 14 1021.0 - 0.0 - - - - - - -
04/10:00am 9.5 WNW 10 15 1021.1 - 0.0 - - - - - - -
04/09:30am 9.6 WNW 11 14 1021.0 - 0.0 - - - - - - -
04/09:00am 8.6 WNW 9 13 1021.1 - 0.0 Fine Partly cloudy - <0.5 2.5 8 SE
04/08:30am 8.0 NW 9 13 1021.1 - 0.0 - - - - - - -
04/08:00am 7.0 NW 9 13 1021.4 - 0.0 - - - - - - -
04/07:30am 6.5 NW 9 12 1021.5 - 0.0 - - - - - - -
04/07:00am 6.7 NW 9 14 1021.6 - 0.0 - - - - - - -
04/06:30am 6.8 WNW 9 11 1021.5 - 0.0 - - - - - - -
04/06:00am 7.2 WNW 8 11 1021.4 - 0.0 - - - - - - -
04/05:30am 7.0 WNW 9 12 1021.3 - 0.0 - - - - - - -
04/05:00am 7.1 WNW 9 13 1021.3 - 0.0 - - - - - - -
04/04:30am 7.0 WNW 8 11 1021.4 - 0.0 - - - - - - -
04/04:00am 6.9 WNW 10 14 1021.6 - 0.0 - - - - - - -
04/03:30am 6.8 NW 8 11 1021.9 - 0.0 - - - - - - -
04/03:00am 7.2 NW 8 12 1022.2 - 0.0 Fine Mostly clear 40 <0.5 2.5 8 S
04/02:30am 7.1 NW 9 12 1022.4 - 0.0 - - - - - - -
04/02:00am 6.8 NW 9 11 1022.6 - 0.0 - - - - - - -
04/01:30am 6.5 NW 8 11 1022.8 - 0.0 - - - - - - -
04/01:00am 7.0 NW 6 9 1023.0 - 0.0 - - - - - - -
04/12:30am 7.4 WNW 6 8 1023.2 - 0.0 - - - - - - -
04/12:00am 7.2 NNW 7 9 1023.4 - 0.0 - - - - - - -
 
Date/Time
EST
Temp

°C
Wind Pressure Rain
since 9am
mm
Weather Cloud Vis
km
Sea
Height
m
Swell
Dir
 
Speed
knots
Gust
knots
hPa Trend Height
m
Period
s
Dir
03/11:30pm 7.5 NNW 8 10 1023.7 - 0.0 - - - - - - -
03/11:00pm 7.5 NNW 8 11 1024.0 - 0.0 - - - - - - -
03/10:30pm 7.7 NNW 8 11 1024.2 - 0.0 - - - - - - -
03/10:00pm 7.5 NNW 7 10 1024.4 - 0.0 - - - - - - -
03/09:30pm 7.7 NW 7 9 1024.8 - 0.0 - - - - - - -
03/09:00pm 7.7 NW 9 13 1024.9 - 0.0 Fine Mostly clear 30 1 2.5 8 SE
03/08:30pm 8.0 NW 9 13 1025.0 - 0.0 - - - - - - -
03/08:00pm 8.9 W 12 15 1025.0 - 0.0 - - - - - - -
03/07:30pm 9.5 W 16 19 1025.0 - 0.0 - - - - - - -
03/07:00pm 9.4 W 14 19 1024.9 - 0.0 - - - - - - -
03/06:30pm 9.1 W 14 19 1024.9 - 0.0 - - - - - - -
03/06:00pm 9.7 W 17 21 1024.6 - 0.0 - - - - - - -
03/05:30pm 9.7 WNW 12 16 1024.7 - 0.0 - - - - - - -
03/05:00pm 10.0 W 14 18 1024.6 - 0.0 - - - - - - -
03/04:30pm 10.4 W 16 20 1024.6 - 0.0 - - - - - - -
03/04:00pm 10.7 W 14 18 1024.6 - 0.0 - - - - - - -
03/03:30pm 10.9 W 12 16 1024.5 - 0.0 - - - - - - -
03/03:00pm 11.2 W 15 18 1024.3 - 0.0 Fine Mostly cloudy 30 1 2.5 8 S
03/02:30pm 11.0 W 16 21 1024.2 - 0.0 - - - - - - -
03/02:00pm 11.0 W 16 22 1024.3 - 0.0 - - - - - - -
03/01:30pm 11.1 W 17 21 1024.5 - 0.0 - - - - - - -
03/01:00pm 11.8 W 17 22 1024.9 - 0.0 - - - - - - -
03/12:30pm 11.0 W 17 23 1025.2 - 0.0 - - - - - - -
03/12:00pm 10.9 W 14 23 1025.7 - 0.0 - - - - - - -
03/11:30am 10.5 W 17 21 1026.2 - 0.0 - - - - - - -
03/11:00am 10.7 W 18 22 1026.3 - 0.0 - - - - - - -
03/10:30am 9.9 W 13 21 1026.5 - 0.0 - - - - - - -
03/10:00am 9.4 WNW 12 17 1026.8 - 0.0 - - - - - - -
03/09:30am 9.5 W 18 24 1026.7 - 0.0 - - - - - - -
03/09:00am 8.5 WNW 14 19 1026.5 - 2.6 Fine Mostly cloudy 25 1 2.5 8 S
03/08:30am 8.9 W 17 22 1026.2 - 2.6 - - - - - - -
03/08:00am 8.4 W 20 25 1025.9 - 2.6 - - - - - - -
03/07:30am 8.3 W 21 25 1025.5 - 2.6 - - - - - - -
03/07:00am 8.6 W 23 29 1025.0 - 2.6 - - - - - - -
03/06:30am 8.4 W 19 23 1024.8 - 2.6 - - - - - - -
03/06:00am 8.5 W 23 29 1024.6 - 2.6 - - - - - - -
03/05:30am 8.5 W 23 28 1024.1 - 2.6 - - - - - - -
03/05:00am 8.4 W 24 29 1024.1 - 2.6 - - - - - - -
03/04:30am 8.4 W 23 28 1024.2 - 2.6 - - - - - - -
03/04:00am 8.4 W 22 27 1024.1 - 2.6 - - - - - - -
03/03:30am 8.5 W 23 28 1024.1 - 2.6 - - - - - - -
03/03:00am 8.4 W 25 29 1024.2 - 2.6 Fine Mostly clear 35 1 2.0 8 S
03/02:30am 8.7 W 23 29 1024.3 - 2.6 - - - - - - -
03/02:00am 8.8 W 24 30 1024.2 - 2.6 - - - - - - -
03/01:30am 9.0 W 25 30 1023.8 - 2.6 - - - - - - -
03/01:00am 9.0 W 24 29 1023.9 - 2.6 - - - - - - -
03/12:30am 8.9 W 22 27 1023.8 - 2.6 - - - - - - -
03/12:00am 8.8 W 25 29 1023.7 - 2.6 - - - - - - -
 
Date/Time
EST
Temp

°C
Wind Pressure Rain
since 9am
mm
Weather Cloud Vis
km
Sea
Height
m
Swell
Dir
 
Speed
knots
Gust
knots
hPa Trend Height
m
Period
s
Dir
02/11:30pm 8.7 W 21 28 1023.6 - 2.6 - - - - - - -
02/11:00pm 9.2 W 28 34 1023.2 - 2.6 - - - - - - -
02/10:30pm 9.4 W 24 32 1023.1 - 2.6 - - - - - - -
02/10:00pm 9.4 W 26 31 1023.1 - 2.6 - - - - - - -
02/09:30pm 9.1 W 23 28 1022.9 - 2.6 - - - - - - -
02/09:00pm 9.5 W 23 33 1022.5 - 2.6 Fine Partly cloudy 15 2 2.5 8 S
02/08:30pm 9.1 W 24 29 1022.2 - 2.6 - - - - - - -
02/08:00pm 9.6 W 23 29 1021.8 - 2.6 - - - - - - -
02/07:30pm 9.4 W 24 29 1021.6 - 2.6 - - - - - - -
02/07:00pm 9.3 W 25 31 1021.1 - 2.6 - - - - - - -
02/06:30pm 9.5 W 24 30 1020.4 - 2.6 - - - - - - -
02/06:00pm 9.1 W 23 29 1019.8 - 2.6 - - - - - - -
02/05:30pm 9.1 W 27 35 1019.4 - 2.6 - - - - - - -
02/05:00pm 8.8 W 27 33 1018.9 - 2.6 - - - - - - -
02/04:31pm 8.4 W 30 40 1018.8 - 2.6 - - - - - - -
02/04:30pm 8.3 W 31 40 1018.9 - 2.6 - - - - - - -
02/04:03pm 8.8 WSW 28 38 1018.6 - 2.4 - - - - - - -
02/04:00pm 9.0 WSW 27 35 1018.5 - 2.4 - - - - - - -
02/03:43pm 9.3 WSW 27 37 1018.3 - 2.4 - - - - - - -
02/03:30pm 9.7 WSW 27 35 1018.0 - 2.4 - - - - - - -
02/03:00pm 9.7 W 25 33 1017.4 - 2.4 Distant precip. Mostly cloudy 15 2 2.5 8 S
02/02:45pm 9.4 W 24 35 1017.3 - 2.4 - - - - - - -
02/02:30pm 9.2 W 23 28 1017.0 - 2.4 - - - - - - -
02/02:00pm 9.1 W 23 30 1016.5 - 2.4 - - - - - - -
02/01:30pm 8.2 W 29 36 1016.6 - 2.0 - - - - - - -
02/01:00pm 9.4 WSW 28 38 1016.2 - 0.6 - - - - - - -
02/12:30pm 10.2 WSW 32 43 1016.0 - 0.2 - - - - - - -
02/12:09pm 11.6 WSW 28 40 1015.7 - 0.2 - - - - - - -
02/12:00pm 11.2 WSW 29 36 1015.7 - 0.2 - - - - - - -
02/11:30am 12.0 WSW 27 47 1016.0 - 0.0 - - - - - - -
02/11:23am 12.1 W 23 33 1015.8 - 0.0 - - - - - - -
02/11:00am 11.6 W 21 28 1016.2 - 0.0 - - - - - - -
02/10:30am 11.1 W 19 23 1016.5 - 0.0 - - - - - - -
02/10:00am 10.9 W 23 29 1016.6 - 0.0 - - - - - - -
02/09:30am 11.1 WSW 26 33 1016.6 - 0.0 - - - - - - -
02/09:00am 11.4 SW 32 41 1016.2 - 0.8 Showers Cloudy 10 1 1.5 13 S
02/08:59am 11.3 SW 31 41 1016.2 - 0.8 - - - - - - -
02/08:41am 11.8 SW 35 40 1016.0 - 0.0 - - - - - - -
02/08:38am 12.6 WSW 20 30 1016.0 - 0.0 - - - - - - -
02/08:30am 12.3 WSW 21 25 1015.8 - 0.0 - - - - - - -
02/08:16am 12.1 W 17 27 1015.3 - 0.0 - - - - - - -
02/08:00am 11.1 NW 10 14 1015.0 - 0.0 - - - - - - -
02/07:30am 10.3 NW 10 14 1014.9 - 0.0 - - - - - - -
02/07:00am 10.5 NW 12 16 1014.9 - 0.0 - - - - - - -
02/06:30am 10.3 NW 12 19 1014.4 - 0.0 - - - - - - -
02/06:00am 10.2 NW 11 16 1014.6 - 0.0 - - - - - - -
02/05:30am 10.2 NW 12 18 1014.7 - 0.0 - - - - - - -
02/05:00am 10.1 NW 12 18 1015.1 - 0.0 - - - - - - -
02/04:30am 10.3 NW 10 16 1015.3 - 0.0 - - - - - - -
02/04:00am 10.3 NW 11 15 1015.6 - 0.0 - - - - - - -
02/03:30am 9.9 NW 10 14 1016.3 - 0.0 - - - - - - -
02/03:00am 10.6 NW 9 12 1016.8 - 0.0 Fine Cloudy 40 1 1.5 11 S
02/02:30am 10.6 NNW 9 13 1017.1 - 0.0 - - - - - - -
02/02:00am 11.0 NNW 10 14 1017.5 - 0.0 - - - - - - -
02/01:30am 10.4 NNW 10 15 1017.8 - 0.0 - - - - - - -
02/01:00am 10.5 NW 11 15 1018.3 - 0.0 - - - - - - -
02/12:30am 10.4 NW 10 16 1018.9 - 0.0 - - - - - - -
02/12:00am 9.7 NNW 7 13 1019.5 - 0.0 - - - - - - -

Other Formats:

Comma delimited format used in spreadsheet applications
http://www.bom.gov.au/fwo/IDV60701/IDV60701.94933.axf

JavaScript Object Notation format (JSON) in row-major order
http://www.bom.gov.au/fwo/IDV60701/IDV60701.94933.json